Location: Waco, TX
(31.5480°N, 97.1670°W)
Time: 22:26:40
(UTC-05:00)

ISS - Pass Details

Date: 28 May 2017
Orbit: 401 x 408 km, 51.6° (Epoch: 24 June)

Event Time Altitude Azimuth Distance (km) Brightness Sun altitude
Rises 04:02:15 0° 317° (NW) 2,325 - -25.1°
Reaches altitude 10° 04:04:21 10° 320° (NW) 1,461 - -24.8°
Maximum altitude 04:07:37 68° 44° (NE) 436 - -24.3°
Drops below altitude 10° 04:10:50 10° 128° (SE) 1,448 - -23.9°
Sets 04:12:55 0° 131° (SE) 2,302 - -23.6°
